Retour au catalogue

COSMOS 2586

ActifMilitairePO
NORAD 63289·PAYLOAD·🇷🇺 Russia

Lancé Mar 16, 2025 depuis Plesetsk Cosmodrome

Loading…

Prochains Passages (prochaines 24 heures)

TLE

FraisSource: Space-Track

Époque: Sep 14, 2026, 03:28 UTC

1 63289U 25054B   26257.14501329  .00000013  00000-0  23416-4 0  9995
2 63289  82.4959  23.1489 0021155 186.8588 173.2205 12.42879119 67908

Suivez COSMOS 2586 en temps réel avec AllMySat

Download on the App Store